Regional Weather Roundup
Issued by NWS Wakefield, VA

Home | Current Version | Previous Version | Graphics & Text | Print | Product List | Glossary On
Versions: 1 2 3 4 5 6 7 8 9 10 11 12 13 14 15 16 17 18 19 20 21 22 23 24 25 26 27 28 29 30 31 32 33 34 35 36 37 38 39 40 41 42 43 44 45 46 47 48 49 50
000
ASUS41 KAKQ 050014
RWRAKQ

REGIONAL WEATHER ROUNDUP
NATIONAL WEATHER SERVICE WAKEFIELD VA
800 PM EDT FRI SEP 04 2015

Note: "fair" indicates few or no clouds below 12,000 feet with no
significant weather and/or obstructions to visibility. * = Denotes
station may not report precipitation (e.g., rain,snow,etc.),
thunder or fog.

VAZ042-051-052>054-056-050100-
NORTHERN VIRGINIA

CITY           SKY/WX    TMP DP  RH WIND       PRES   REMARKS
WASH NATIONAL  MOCLDY    84  70  62 E9        30.06R
DULLES         MOCLDY    75  71  87 CALM      30.06R
FORT BELVOIR   FAIR      78  74  87 SE2       30.05R
QUANTICO       FAIR      76  70  82 NW3       30.06R
FREDERICKSBRG* FAIR      77  71  80 CALM      30.05R
STAFFORD*      FAIR      76  71  84 CALM      30.10R
WARRENTON      FAIR      72  72 100 CALM      30.07R FOG
CULPEPER*      FAIR      70  69  96 CALM      30.07F
MANASSAS*      CLEAR     73  73 100 CALM      30.06R
LEESBURG*      FAIR      77  73  88 CALM      30.08R
WINCHESTER     FAIR      77  68  73 CALM      30.08R
FRONT ROYAL*   FAIR      79  68  69 CALM      30.07S
LURAY*         FAIR      70  70 100 SW5       30.08S FOG
$$

VAZ048-049-060>072-079>083-050100-
CENTRAL AND SOUTH CENTRAL VIRGINIA

CITY           SKY/WX    TMP DP  RH WIND       PRES   REMARKS
RICHMOND       CLOUDY    79  70  74 E3        30.04R
CHESTERFIELD*  FAIR      75  63  64 CALM      30.05R
PETERSBURG*    LGT RAIN  75  75 100 NW3       30.04R
HANOVER        FAIR      74  72  93 CALM      30.06R FOG
TAPPAHANNOCK*  FAIR      75  69  82 CALM      30.05R
QUINTON*       FAIR      75  71  88 CALM      30.04R
CHARLOTTSVILLE FAIR      72  66  81 CALM      30.07F
GORDONSVILLE*  FAIR      70  70  99 CALM      30.06F FOG
ORANGE*        FAIR      72  70  94 CALM      30.08F FOG
LOUISA*        FAIR      72  70  94 CALM      30.06S FOG
BUMPASS*       FAIR      71  70  96 N5        30.06R
FARMVILLE*     FAIR      73  65  76 CALM      30.04S
CREWE*         FAIR     N/A N/A N/A CALM      30.05R
FORT PICKETT*  FAIR      70  69  98 W9        30.05R
CHASE CITY*    FAIR      75  72  89 CALM      30.04S
CLARKSVILLE*   FAIR      73  68  83 NE3       30.02S
SOUTH HILL*    FAIR      69  68  98 CALM      30.09R
LAWRENCEVILLE* FAIR      70  70 100 NW5       30.04R
EMPORIA*       FAIR      72  70  94 CALM      30.03S
$$

VAZ088>098-050100-
SOUTHEAST VIRGINIA

CITY           SKY/WX    TMP DP  RH WIND       PRES   REMARKS
NORFOLK        FAIR      79  69  71 E13       30.02R
VIRGINIA BEACH MOCLDY    83  69  62 E14       30.01S
NORFOLK NAVAL  FAIR      80  70  71 E13       30.03S
WEST POINT*    FAIR      77  69  77 CALM      30.06R
SALUDA*        FAIR      79  71  75 E9        30.04R
NEWPORT NEWS   FAIR      79  70  74 E8        30.03R
LANGLEY AFB    FAIR      79  70  74 E12       30.02R
FORT EUSTIS    FAIR      80  70  72 E5        30.01R
WILLIAMSBURG*  FAIR      79  72  78 CALM      30.04R
HR EXEC AP*      N/A     79  68  69 E9        30.04R
FRANKLIN*      FAIR      75  71  86 NE5       30.02S
WAKEFIELD      FAIR      76  69  79 CALM      30.03R
$$

VAZ020-022-025-037-045-050100-
WEST CENTRAL AND SOUTHWEST VIRGINIA

CITY           SKY/WX    TMP DP  RH WIND       PRES   REMARKS
STAUNTON*      FAIR      73  65  76 CALM      30.12S
WAYNESBORO*    CLOUDY    69  67  92 NW6       30.12S
HOT SPRINGS VA FAIR      69  65  86 E3        30.23R
LYNCHBURG      FAIR      74  67  78 NE5       30.09R
DANVILLE       FAIR      73  68  84 N5        30.06R
SOUTH BOSTON*  FAIR      73  68  83 CALM      30.04S
MARTINSVILLE   FAIR      74  61  65 NW3       30.09F
ROANOKE        CLOUDY    69  65  86 N3        30.13R
BLACKSBURG     LGT RAIN  66  64  94 CALM      30.18S
DUBLIN*          N/A     69  64  83 CALM      30.17F
MARION*        FAIR      74  63  68 NE8       30.20R
HILLSVILLE*    TSTM      63  62  97 SE8       30.18F
RICHLANDS*     FAIR      75  32  20 NE3       30.16R
WISE*          FAIR      77  61  57 N6        30.17R
ABINGDON*      FAIR      79  62  56 CALM      30.11R
$$

MDZ021>025-VAZ099-100-050100-
SOUTHERN MARYLAND AND THE DELMARVA PENINSULA

CITY           SKY/WX    TMP DP  RH WIND       PRES   REMARKS
PATUXENT RIVER MOCLDY    80  68  66 E14       30.05R
BAY BRIDGE APT   N/A     79  68  69 E9        30.07R
LEONARDTOWN    NOT AVBL
DOVER          MOCLDY    76  71  84 E14       30.08R
GEORGETOWN     CLOUDY    77  72  84 E9G20     30.09R
EASTON         NOT AVBL
CAMBRIDGE      FAIR      79  68  69 E6        30.06R
SALISBURY      FAIR      77  71  82 NE7       30.07R
OCEAN CITY     FAIR      78  72  81 SE14G35   30.06R
WALLOPS ISLAND FAIR      79  72  79 NE15      30.06R
ACCOMACK*      FAIR      73 -18   2 E9        30.01S
$$

NCZ012>017-030>032-050100-
NORTH CENTRAL AND EASTERN NORTH CAROLINA

CITY           SKY/WX    TMP DP  RH WIND       PRES   REMARKS
ROANOKE RAPIDS FAIR      75  70  83 CALM      30.02R
RALEIGH        MOCLDY    77  70  79 CALM      30.02R
ELIZABETH CITY LGT RAIN  78  72  81 NE8       30.00S
AHOSKIE*       FAIR      77  69  77 N3        30.01S
EDENTON*       FAIR      75  70  83 NE5       30.00R
CURRITUCK*     FAIR      80  69  68 E10G17    30.01S
KILL DEVIL HLS MOCLDY    79  73  80 NE8       29.99R
MANTEO         CLOUDY    79  73  83 NE13G18   30.00R
CAPE HATTERAS  FAIR      79  72  79 NE6       29.97R
TARBORO*       FAIR      71  70  95 SE3       30.01S FOG
GOLDSBORO      FAIR      75  71  86 N1        29.97F
WASHINGTON     FAIR      76  71  85 NE5       30.00R
GREENVILLE     FAIR      77  72  83 CALM      30.01S
NEW BERN       FAIR      80  71  74 NE8       29.99R
WILMINGTON     FAIR      81  70  69 CALM      29.96R
$$

VAZ048-050100-
ELSEWHERE

CITY           SKY/WX    TMP DP  RH WIND       PRES   REMARKS
HARRISBURG PA  MOCLDY    81  70  69 SE7       30.08R
BALTIMORE      MOCLDY    81  70  69 E13       30.07R
ANNAPOLIS      FAIR      81  71  71 E13G21    30.07R
ANDREWS AFB    FAIR      80  69  70 E9        30.06R
PHILADELPHIA   MOCLDY    78  66  66 E12       30.12R
HENDERSON NC   FAIR      73  67  80 CALM      30.03R
GREENSBORO     LGT RAIN  73  69  87 N6        30.05S
ROCKY MOUNT    FAIR      73  70  90 CALM      30.00R
$$

VAZ100-050100-
MARINE

STATION/POSITION TIME  TEMP    WIND        PRES    WAVE   SWELL
                       AIR SEA DIR/SP/G            HT/PER HT/PER
                 (UTC) (F)     (DEG/KT/KT) (MB)    (FT/S) (FT/S)
BRANDYWINE LGT   2300   77 77   80/ 21/ 22 1018.4R
CAPE MAY NJ      2300   77 80   80/ 10/ 16 1018.1R
LEWES DE         2300   76 79   70/ 17/ 19 1018.0R
15NM E FENWICK I 2350   78 80   40/ 17/ 21 1017.6S   4/ 5   2/ 9
OCEAN-CITY-INLET 2300   79 79   80/ 10/ 14 1016.9R
THOMAS POINT MD  0000   80     100/ 15     1018.5
GOOSES REEF MD   0000   82 81   90/ 12/ 16 1018.8R
COVE POINT MD    2300   83     110/ 14/ 17 1017.9R
SOLOMONS ISLAND  2300      83                N/A
BISHOPS HEAD MD  2300   82 84   90/ 14/ 16 1016.4R
PINEY POINT MD   2305          160/ 11/ 12   N/A
POTOMAC MD       0000   82 81  110/ 14/ 16 1016.1R   2/ 3
CAMBRIDGE MD     2300   82 83   80/ 11/ 15 1016.7R
LEWISETTA VA     2300   82 83  150/  8/ 11 1016.5R
RAPPAHANNOCK LGT 2300           60/ 13/ 15 1017.3F
STINGRAY PT      0000   81 81   90/ 14/ 16 1017.4R   2/ 3
YORK RVR RNG VA  2300   81      90/ 12/ 14 1015.8F
YORKTOWN VA      2300   81 81   90/ 14/ 16 1016.1F
JAMESTOWN VA     0000   80 83   80/  4/ 10   N/A
DOMINION TERM VA 2300   81      80/ 12/ 16 1016.3F
KIPTOPEKE VA     2300      81   80/  9/ 12   N/A
CHES BAY BRIDGE  2300   80 80   40/ 15/ 17 1015.7F
CAPE HENRY VA    2300   80      60/ 14/ 17   N/A
CHESAPEAKE LGHT  2300   80      70/ 19/ 20 1016.8S
WILLOUBY STN VA  2300   80      80/ 14/ 16 1017.3F
CAPE HENRY BUOY  2328      80                N/A     3/ 4
1ST LANDING BUOY 0000      79              1016.2R   2/ 3
CAPE CHARLES BUO 2326      80                N/A     3/ 4   2/12
OFFSHORE WE BUOY 2311      80                N/A     3/ 4   2/11
64NM E OF VA BCH 2350   80 80   60/ 17/ 19 1015.4S   3/ 4   2/10
DUCK PIER NC     2300   80 81   40/ 17/ 17 1015.0R
44100 DUCK FRF   2324      80                N/A     3/ 4
44056 DUCK FRF   2311      81                N/A     3/ 4
OREGON INLET NC  2300   80 83   30/ 14/ 16 1014.8S
HATTERAS NC      2300   81 84   30/ 10/ 14 1014.2R
DIAMOND SHLS NC  2350   81 84   30/ 12/ 14 1014.5R   1/ 3
CAPE LOOKOUT NC  0000   83     300/  5/  5 1014.3R
$$



USA.gov is the U.S. government's official web portal to all federal, state and local government web resources and services.